M I D A S
Marine Information and Data Acquisition System
Tripno 69 of the Zeeleeuw from 2001-11-30 09:45:00 to 2001-11-30 15:10:00
Back to CruiseResearch ActivitiesStationsMapUnderway DataData graphs

EquipmentUnitsComments
TimeDGPSUTC
LatitudeDGPSDM.mWGS84
LongitudeDGPSDM.mWGS84
SpeedMeteo Stationm/sRelative wind speed
DirectionMeteo StationdegRelative wind direction
TemperatureMeteo Stationdeg CelciusAir temperature
PressureMeteo StationPaAtmospheric pressure
HumidityMeteo Station%Relative humidity
Missing or incorrect values are displayed as -999
Metereological data collected by the RV Zeeleeuw from 2001-11-30 09:45:00 to 2001-11-30 15:10:00
Time Latitude Longitude Speed Direction Temperature Pressure Humidity
2001-11-30 09:46 51°20.166 2°59.655 1.2 53 10.8 100930 96
2001-11-30 09:47 51°20.362 2°59.844 1.1 268 10.8 100940 96
2001-11-30 09:48 51°20.557 3°0.027 1.2 32 10.8 100940 96
2001-11-30 09:49 51°20.758 3°0.216 0.4 153 10.8 100930 96
2001-11-30 09:50 51°20.956 3°0.399 1.3 60 10.8 100930 96
2001-11-30 09:51 51°21.153 3°0.585 1 104 10.8 100930 96
2001-11-30 09:52 51°21.349 3°0.772 1 227 10.8 100930 96
2001-11-30 09:53 51°21.548 3°0.96 0.9 84 10.8 100940 96
2001-11-30 09:54 51°21.739 3°1.129 1.5 255 10.8 100940 96
2001-11-30 09:55 51°21.951 3°1.286 1.4 262 10.8 100940 96
2001-11-30 09:56 51°22.156 3°1.443 0.6 110 10.8 100930 96
2001-11-30 09:57 51°22.357 3°1.599 1.5 255 10.8 100930 96
2001-11-30 09:58 51°22.564 3°1.75 2.4 175 10.8 100930 96
2001-11-30 09:59 51°22.771 3°1.902 1.5 245 10.8 100930 96
2001-11-30 10:00 51°22.976 3°2.06 1.3 250 10.7 100930 96
2001-11-30 10:01 51°23.183 3°2.219 1.9 357 10.7 100930 96
2001-11-30 10:02 51°23.389 3°2.385 1.1 230 10.7 100940 96
2001-11-30 10:03 51°23.595 3°2.55 1.8 214 10.7 100930 96
2001-11-30 10:04 51°23.803 3°2.716 1.7 265 10.7 100930 96
2001-11-30 10:05 51°24.011 3°2.884 2 109 10.7 100930 96
2001-11-30 10:06 51°24.219 3°3.055 2 262 10.7 100930 96
2001-11-30 10:07 51°24.433 3°3.2 2.6 32 10.7 100930 96
2001-11-30 10:08 51°24.643 3°3.36 1.7 18 10.8 100930 96
2001-11-30 10:09 51°24.851 3°3.519 2.3 323 10.7 100930 96
2001-11-30 10:10 51°25.056 3°3.686 1.3 312 10.8 100920 96
2001-11-30 10:11 51°25.26 3°3.854 1.5 262 10.8 100930 96
2001-11-30 10:12 51°25.466 3°4.009 1.5 220 10.8 100930 96
2001-11-30 10:13 51°25.67 3°4.161 1.6 235 10.8 100930 96
2001-11-30 10:14 51°25.871 3°4.327 2 217 10.8 100930 96
2001-11-30 10:15 51°26.071 3°4.492 1.7 18 10.9 100940 96
2001-11-30 10:16 51°26.189 3°4.773 5.6 262 10.8 100930 96
2001-11-30 10:17 51°26.11 3°5.125 5.9 294 10.9 100920 96
2001-11-30 10:18 51°26.008 3°5.483 5.7 288 10.8 100920 96
2001-11-30 10:19 51°25.91 3°5.832 6 284 10.8 100920 96
2001-11-30 10:20 51°25.802 3°6.179 7.2 288 10.8 100920 96
2001-11-30 10:21 51°25.666 3°6.504 7.6 294 10.8 100910 96
2001-11-30 10:22 51°25.535 3°6.835 7 294 10.8 100910 96
2001-11-30 10:23 51°25.396 3°7.167 7.5 286 10.8 100910 96
2001-11-30 10:24 51°25.262 3°7.489 5.8 281 10.8 100910 96
2001-11-30 10:25 51°25.127 3°7.824 3.3 277 10.8 100920 96
2001-11-30 10:26 51°24.999 3°8.163 7 290 10.8 100910 96
2001-11-30 10:27 51°24.874 3°8.503 6.7 289 10.8 100910 96
2001-11-30 10:28 51°24.754 3°8.855 6.8 279 10.8 100920 96
2001-11-30 10:29 51°24.633 3°9.217 7.8 287 10.8 100920 96
2001-11-30 10:30 51°24.558 3°9.588 3.9 267 10.8 100910 96
2001-11-30 10:31 51°24.577 3°9.993 3.5 272 10.7 100930 96
2001-11-30 10:32 51°24.63 3°10.396 2 291 10.7 100930 96
2001-11-30 10:33 51°24.749 3°10.749 0.1 234 10.7 100930 96
2001-11-30 10:34 51°24.93 3°10.985 5.3 138 10.7 100930 96
2001-11-30 10:35 51°25.09 3°10.838 15.6 38 10.7 100900 96
2001-11-30 10:36 51°25.201 3°10.578 14.5 39 10.8 100880 96
2001-11-30 10:37 51°25.33 3°10.326 12.4 42 10.7 100890 96
2001-11-30 10:38 51°25.454 3°10.086 12.5 43 10.7 100880 96
2001-11-30 10:39 51°25.58 3°9.843 11.1 36 10.8 100880 96
2001-11-30 10:40 51°25.708 3°9.599 11.2 42 10.8 100880 96
2001-11-30 10:41 51°25.836 3°9.354 11.7 130 10.8 100880 96
2001-11-30 10:42 51°25.967 3°9.109 12 45 10.8 100880 96
2001-11-30 10:43 51°26.098 3°8.86 11.7 41 10.8 100880 96
2001-11-30 10:44 51°26.231 3°8.606 9.1 130 10.8 100880 96
2001-11-30 10:45 51°26.355 3°8.351 13.1 39 10.9 100880 96
2001-11-30 10:46 51°26.48 3°8.092 14 39 10.9 100880 96
2001-11-30 10:47 51°26.608 3°7.83 14.7 36 10.9 100880 96
2001-11-30 10:48 51°26.731 3°7.577 13.6 38 10.9 100880 96
2001-11-30 10:49 51°26.86 3°7.313 15.1 37 10.9 100880 96
2001-11-30 10:50 51°26.982 3°7.055 15.1 39 10.9 100870 96
2001-11-30 10:51 51°27.11 3°6.79 14.4 41 11 100870 96
2001-11-30 10:52 51°27.233 3°6.532 14.7 39 11 100870 96
2001-11-30 10:53 51°27.36 3°6.269 15 39 11 100870 96
2001-11-30 10:54 51°27.518 3°6.083 2.8 27 11 100870 96
2001-11-30 10:55 51°27.744 3°6.066 8.5 19 11 100890 96
2001-11-30 10:56 51°27.924 3°6.21 2.3 279 11 100910 96
2001-11-30 10:57 51°28.009 3°6.576 1.8 230 11 100910 96
2001-11-30 10:58 51°28.12 3°6.931 0.8 218 11 100920 96
2001-11-30 10:59 51°28.225 3°7.296 1.7 216 11 100910 96
2001-11-30 11:00 51°28.335 3°7.653 1.8 233 11 100910 96
2001-11-30 11:01 51°28.437 3°8.013 1.6 254 11 100920 96
2001-11-30 11:02 51°28.545 3°8.386 1.3 281 11 100920 96
2001-11-30 11:03 51°28.654 3°8.747 1.4 218 11.1 100920 96
2001-11-30 11:04 51°28.762 3°9.099 1.1 229 11 100920 96
2001-11-30 11:05 51°28.872 3°9.465 1.2 221 11 100920 96
2001-11-30 11:06 51°28.964 3°9.835 4.3 262 11 100920 96
2001-11-30 11:07 51°28.908 3°10.209 9.4 297 11 100900 96
2001-11-30 11:08 51°28.774 3°10.539 8.1 286 11 100890 96
2001-11-30 11:09 51°28.642 3°10.875 8.1 293 11 100900 96
2001-11-30 11:10 51°28.507 3°11.212 9.7 292 11 100900 96
2001-11-30 11:11 51°28.366 3°11.543 8.4 286 11 100900 96
2001-11-30 11:12 51°28.226 3°11.876 7 290 11 100900 96
2001-11-30 11:13 51°28.086 3°12.209 8.8 290 10.9 100900 96
2001-11-30 11:14 51°27.936 3°12.529 8.9 302 10.9 100900 96
2001-11-30 11:15 51°27.779 3°12.842 8.9 302 10.9 100900 96
2001-11-30 11:16 51°27.622 3°13.156 9.9 289 10.9 100900 96
2001-11-30 11:17 51°27.469 3°13.471 9 291 10.9 100900 96
2001-11-30 11:18 51°27.317 3°13.783 9.9 293 10.9 100900 96
2001-11-30 11:19 51°27.167 3°14.094 8.3 284 10.9 100910 96
2001-11-30 11:20 51°27.014 3°14.403 7.8 298 10.9 100910 96
2001-11-30 11:21 51°26.864 3°14.712 7.5 287 10.9 100900 96
2001-11-30 11:22 51°26.714 3°15.022 8 282 10.9 100900 96
2001-11-30 11:23 51°26.565 3°15.331 9.6 292 10.9 100910 96
2001-11-30 11:24 51°26.416 3°15.637 7.9 294 10.9 100910 96
2001-11-30 11:25 51°26.267 3°15.942 8 291 10.9 100910 96
2001-11-30 11:26 51°26.117 3°16.251 8.6 287 10.9 100910 96
2001-11-30 11:27 51°25.98 3°16.544 6 284 10.9 100910 96
2001-11-30 11:28 51°25.86 3°16.808 8.3 269 10.9 100920 96
2001-11-30 11:29 51°25.776 3°17.014 8.2 257 10.9 100920 96
2001-11-30 11:30 51°25.715 3°17.185 8.2 254 10.9 100920 96
2001-11-30 11:31 51°25.65 3°17.367 8.7 264 10.9 100920 96
2001-11-30 11:32 51°25.554 3°17.579 6.6 283 10.9 100920 96
2001-11-30 11:33 51°25.437 3°17.805 6.9 282 10.9 100920 96
2001-11-30 11:34 51°25.302 3°18.07 8.9 290 10.9 100920 96
2001-11-30 11:35 51°25.141 3°18.37 9.9 299 10.9 100910 96
2001-11-30 11:36 51°24.976 3°18.679 9 291 11 100910 96
2001-11-30 11:37 51°24.812 3°18.985 9.7 302 10.9 100910 96
2001-11-30 11:38 51°24.641 3°19.305 9.5 297 10.9 100900 96
2001-11-30 11:39 51°24.474 3°19.627 9.5 288 11 100910 96
2001-11-30 11:40 51°24.302 3°19.935 10.7 287 11.1 100900 96
2001-11-30 11:41 51°24.095 3°20.063 18.2 330 11.3 100880 96
2001-11-30 11:42 51°23.958 3°19.889 21.7 352 11.4 100880 96
2001-11-30 11:43 51°23.853 3°19.65 21.9 348 11.5 100880 96
2001-11-30 11:44 51°23.75 3°19.405 18.8 353 11.6 100880 96
2001-11-30 11:45 51°23.66 3°19.15 19.6 355 11.6 100890 96
2001-11-30 11:46 51°23.568 3°18.895 17.9 352 11.6 100880 96
2001-11-30 11:47 51°23.475 3°18.638 18.4 352 11.6 100880 96
2001-11-30 11:48 51°23.388 3°18.38 19.5 1 11.6 100880 96
2001-11-30 11:49 51°23.321 3°18.113 18.4 4 11.7 100880 96
2001-11-30 11:50 51°23.266 3°17.838 18.3 4 11.7 100870 96
2001-11-30 11:51 51°23.221 3°17.56 17.7 3 11.7 100870 96
2001-11-30 11:52 51°23.178 3°17.277 19.9 8 11.7 100860 96
2001-11-30 11:53 51°23.141 3°16.992 20.5 3 11.7 100840 96
2001-11-30 11:54 51°23.104 3°16.707 18.4 6 11.7 100850 96
2001-11-30 11:55 51°23.067 3°16.424 19.5 10 11.7 100840 96
2001-11-30 11:56 51°23.028 3°16.145 20 3 11.7 100860 96
2001-11-30 11:57 51°22.99 3°15.867 19.2 2 11.7 100850 96
2001-11-30 11:58 51°22.954 3°15.593 21 10 11.7 100850 96
2001-11-30 11:59 51°22.921 3°15.308 18.4 6 11.7 100870 96
2001-11-30 12:00 51°22.889 3°15.025 19.1 9 11.7 100870 96
2001-11-30 12:01 51°22.855 3°14.74 20.5 17 11.7 100860 96
2001-11-30 12:02 51°22.823 3°14.455 20.4 9 11.7 100860 95
2001-11-30 12:03 51°22.79 3°14.169 20.6 13 11.7 100860 96
2001-11-30 12:04 51°22.757 3°13.883 19.9 8 11.8 100850 96
2001-11-30 12:05 51°22.718 3°13.599 20.3 8 11.8 100850 95
2001-11-30 12:06 51°22.686 3°13.307 19.5 10 11.7 100850 95
2001-11-30 12:07 51°22.654 3°13.013 20.1 9 11.7 100850 95
2001-11-30 12:08 51°22.616 3°12.72 19.1 13 11.6 100860 95
2001-11-30 12:09 51°22.585 3°12.425 19.7 12 11.5 100860 95
2001-11-30 12:10 51°22.55 3°12.128 20 6 11.4 100860 95
2001-11-30 12:11 51°22.516 3°11.829 19.2 11 11.4 100860 95
2001-11-30 12:12 51°22.48 3°11.529 18.9 11 11.4 100860 95
2001-11-30 12:13 51°22.445 3°11.226 18.4 6 11.3 100850 95
2001-11-30 12:14 51°22.41 3°10.924 18.3 7 11.3 100860 95
2001-11-30 12:15 51°22.373 3°10.624 20.3 12 11.3 100850 95
2001-11-30 12:16 51°22.332 3°10.313 20.1 4 11.2 100860 95
2001-11-30 12:17 51°22.295 3°10.004 19.3 8 11.2 100860 95
2001-11-30 12:18 51°22.256 3°9.699 19.9 8 11.2 100870 95
2001-11-30 12:19 51°22.215 3°9.393 17.4 6 11.2 100860 95
2001-11-30 12:20 51°22.174 3°9.09 18.2 6 11.2 100870 95
2001-11-30 12:21 51°22.13 3°8.789 19.1 4 11.2 100870 95
2001-11-30 12:22 51°22.086 3°8.488 18.5 8 11.2 100870 95
2001-11-30 12:23 51°22.042 3°8.184 20 8 11.2 100860 95
2001-11-30 12:24 51°21.996 3°7.88 20.4 6 11.2 100870 95
2001-11-30 12:25 51°21.952 3°7.581 18.1 7 11.2 100860 95
2001-11-30 12:26 51°21.906 3°7.275 18.4 4 11.2 100870 95
2001-11-30 12:27 51°21.864 3°6.98 18 6 11.2 100870 95
2001-11-30 12:28 51°21.822 3°6.677 18.9 5 11.2 100860 95
2001-11-30 12:29 51°21.78 3°6.376 17.3 10 11.2 100870 95
2001-11-30 12:30 51°21.736 3°6.071 17.6 4 11.2 100870 95
2001-11-30 12:31 51°21.693 3°5.765 18.8 8 11.2 100880 95
2001-11-30 12:32 51°21.65 3°5.461 19.4 4 11.2 100870 95
2001-11-30 12:33 51°21.606 3°5.161 19.9 6 11.1 100870 95
2001-11-30 12:34 51°21.564 3°4.863 19.5 3 11.1 100870 95
2001-11-30 12:35 51°21.522 3°4.566 18.4 4 11.1 100870 95
2001-11-30 12:36 51°21.48 3°4.263 18.3 5 11.2 100880 95
2001-11-30 12:37 51°21.438 3°3.969 18.8 5 11.2 100860 95
2001-11-30 12:38 51°21.395 3°3.662 17.5 2 11.2 100870 95
2001-11-30 12:39 51°21.353 3°3.356 18 8 11.2 100870 95
2001-11-30 12:40 51°21.311 3°3.049 20.1 8 11.3 100860 95
2001-11-30 12:41 51°21.272 3°2.758 17.5 4 11.3 100870 95
2001-11-30 12:42 51°21.177 3°2.506 17.4 354 11.3 100890 94
2001-11-30 12:43 51°21.066 3°2.259 17.9 354 11.3 100880 94
2001-11-30 12:44 51°20.941 3°2.031 18.4 359 11.3 100890 94
2001-11-30 12:45 51°20.817 3°1.788 18.3 356 11.3 100880 94
2001-11-30 12:46 51°20.692 3°1.548 18.8 1 11.4 100890 94
2001-11-30 12:47 51°20.57 3°1.305 19.6 358 11.4 100890 94
2001-11-30 12:48 51°20.452 3°1.066 18.6 357 11.4 100890 94
2001-11-30 12:49 51°20.331 3°0.82 17.5 355 11.4 100890 94
2001-11-30 12:50 51°20.21 3°0.57 18.4 355 11.4 100880 94
2001-11-30 12:51 51°20.085 3°0.314 20 357 11.4 100880 94
2001-11-30 12:52 51°19.962 3°0.064 19.8 356 11.4 100880 94
2001-11-30 12:53 51°19.84 2°59.817 19 356 11.4 100880 94
2001-11-30 12:54 51°19.726 2°59.562 19.4 2 11.4 100880 94
2001-11-30 12:55 51°19.625 2°59.288 17.8 4 11.4 100870 94
2001-11-30 12:56 51°19.547 2°59.001 19.3 3 11.4 100870 94
2001-11-30 12:57 51°19.471 2°58.71 17.8 6 11.4 100860 94
2001-11-30 12:58 51°19.398 2°58.41 20.1 5 11.4 100820 94
2001-11-30 12:59 51°19.327 2°58.113 20.9 6 11.4 100860 94
2001-11-30 13:00 51°19.261 2°57.818 19.6 6 11.5 100860 94
2001-11-30 13:01 51°19.195 2°57.515 19.7 8 11.4 100870 94
2001-11-30 13:02 51°19.124 2°57.209 16.1 2 11.4 100880 94
2001-11-30 13:03 51°19.053 2°56.906 16.8 1 11.4 100870 94
2001-11-30 13:04 51°18.984 2°56.607 18.4 2 11.4 100870 95
2001-11-30 13:05 51°18.913 2°56.294 18.9 7 11.4 100870 95
2001-11-30 13:06 51°18.843 2°55.988 18.4 4 11.4 100880 95
2001-11-30 13:07 51°18.781 2°55.677 20.1 3 11.4 100850 95
2001-11-30 13:08 51°18.719 2°55.367 18.8 7 11.4 100860 95
2001-11-30 13:09 51°18.658 2°55.058 20.1 4 11.4 100860 95
2001-11-30 13:10 51°18.597 2°54.75 18.9 4 11.4 100860 95
2001-11-30 13:11 51°18.537 2°54.443 20.1 3 11.4 100860 95
2001-11-30 13:12 51°18.476 2°54.134 19.4 3 11.4 100870 95
2001-11-30 13:13 51°18.414 2°53.826 18.2 4 11.5 100870 95
2001-11-30 13:14 51°18.356 2°53.524 17.4 4 11.5 100870 95
2001-11-30 13:15 51°18.294 2°53.211 18.7 6 11.5 100870 95
2001-11-30 13:16 51°18.233 2°52.901 18.9 5 11.5 100870 95
2001-11-30 13:17 51°18.171 2°52.595 19.5 357 11.5 100880 95
2001-11-30 13:18 51°18.019 2°52.416 16.6 342 11.6 100870 95
2001-11-30 13:19 51°17.82 2°52.369 15.7 329 11.5 100880 95
2001-11-30 13:20 51°17.614 2°52.383 15.5 334 11.5 100880 95
2001-11-30 13:21 51°17.409 2°52.432 13.9 315 11.5 100870 95
2001-11-30 13:22 51°17.223 2°52.59 14.5 324 11.5 100880 95
2001-11-30 13:23 51°17.031 2°52.734 12.8 313 11.5 100880 95
2001-11-30 13:24 51°16.835 2°52.853 14 327 11.4 100880 95
2001-11-30 13:25 51°16.637 2°52.982 13.8 316 11.4 100880 95
2001-11-30 13:26 51°16.443 2°53.129 13.1 309 11.4 100890 95
2001-11-30 13:27 51°16.249 2°53.286 12.7 320 11.4 100890 95
2001-11-30 13:28 51°16.054 2°53.441 12.8 323 11.5 100890 95
2001-11-30 13:29 51°15.856 2°53.587 12.6 316 11.5 100890 95
2001-11-30 13:30 51°15.66 2°53.739 12.8 313 11.5 100900 95
2001-11-30 13:31 51°15.467 2°53.904 12.8 316 11.5 100890 95
2001-11-30 13:32 51°15.275 2°54.068 13 306 11.5 100900 95
2001-11-30 13:33 51°15.084 2°54.249 12.3 306 11.6 100900 95
2001-11-30 13:34 51°14.9 2°54.444 11.9 302 11.6 100900 95
2001-11-30 13:35 51°14.718 2°54.651 11 307 11.6 100910 95
2001-11-30 13:36 51°14.541 2°54.856 11.9 302 11.8 100910 95
2001-11-30 13:37 51°14.372 2°55.059 7.8 286 11.7 100910 94
2001-11-30 13:38 51°14.231 2°55.307 9.2 294 11.8 100930 94
2001-11-30 13:39 51°14.114 2°55.419 6.5 298 12.2 100930 95
2001-11-30 13:40 51°14.039 2°55.474 3.4 295 12.6 100940 95
2001-11-30 13:41 51°13.982 2°55.515 6.1 314 12.8 100950 95
2001-11-30 13:42 51°13.927 2°55.558 4.7 298 13 100930 95
2001-11-30 13:43 51°13.843 2°55.619 4.3 311 13.1 100940 94
2001-11-30 13:44 51°13.774 2°55.692 3.2 292 13.2 100950 94
2001-11-30 13:45 51°13.743 2°55.749 4.5 288 13.3 100950 94
2001-11-30 13:46 51°13.72 2°55.797 3.3 305 13.3 100950 93
2001-11-30 13:47 51°13.702 2°55.84 6 189 13.4 100950 93
2001-11-30 13:48 51°13.69 2°55.899 4.2 201 13.4 100940 92
2001-11-30 14:10 51°13.688 2°55.907 5 218 13.6 100940 90
2001-11-30 14:11 51°13.689 2°55.906 7.1 211 13.7 100940 90
2001-11-30 14:12 51°13.69 2°55.906 7.5 245 13.7 100950 89
2001-11-30 14:13 51°13.69 2°55.907 4.6 237 13.7 100940 89
2001-11-30 14:14 51°13.69 2°55.907 5.4 208 13.6 100950 89
2001-11-30 14:15 51°13.689 2°55.906 3.6 200 13.7 100940 89
2001-11-30 14:16 51°13.689 2°55.906 5.1 201 13.7 100950 89
2001-11-30 14:17 51°13.689 2°55.906 6.3 213 13.7 100940 89
2001-11-30 14:18 51°13.689 2°55.906 4.1 227 13.7 100940 89
2001-11-30 14:19 51°13.689 2°55.906 3.4 214 13.7 100940 89
2001-11-30 14:20 51°13.689 2°55.907 4.7 188 13.7 100940 89
2001-11-30 14:21 51°13.687 2°55.906 5.9 199 13.7 100940 89
2001-11-30 14:22 51°13.687 2°55.906 8.3 217 13.7 100950 89
2001-11-30 14:23 51°13.687 2°55.906 5.8 236 13.7 100950 89
2001-11-30 14:24 51°13.687 2°55.906 5.2 235 13.7 100960 89
2001-11-30 14:25 51°13.687 2°55.907 3.8 234 13.7 100960 89
2001-11-30 14:26 51°13.688 2°55.907 5.2 205 13.7 100960 89
2001-11-30 14:27 51°13.688 2°55.906 5.5 246 13.7 100960 89
2001-11-30 14:28 51°13.688 2°55.906 4.8 168 13.7 100950 89
2001-11-30 14:29 51°13.688 2°55.906 8.6 224 13.7 100960 89
2001-11-30 14:30 51°13.688 2°55.906 5.7 214 13.7 100950 89
2001-11-30 14:31 51°13.688 2°55.906 5.7 201 13.7 100960 89
2001-11-30 14:32 51°13.688 2°55.907 5 240 13.8 100960 89
2001-11-30 14:33 51°13.688 2°55.907 5.8 251 13.8 100950 89
2001-11-30 14:34 51°13.688 2°55.907 7.1 244 13.7 100950 88
2001-11-30 14:35 51°13.688 2°55.907 4 202 13.8 100950 89
2001-11-30 14:36 51°13.688 2°55.907 3.6 281 13.8 100950 89
2001-11-30 14:37 51°13.688 2°55.907 4.2 197 13.8 100950 89
2001-11-30 14:38 51°13.688 2°55.907 4.2 206 13.8 100960 88
2001-11-30 14:39 51°13.688 2°55.907 4.7 212 13.8 100950 89
2001-11-30 14:40 51°13.689 2°55.907 5.7 221 13.8 100950 89
2001-11-30 14:41 51°13.689 2°55.907 10.2 231 13.8 100950 89
2001-11-30 14:42 51°13.688 2°55.907 6.2 232 13.8 100950 89
2001-11-30 14:43 51°13.688 2°55.907 3.9 211 13.8 100950 88
2001-11-30 14:44 51°13.688 2°55.907 7 220 13.8 100960 88
2001-11-30 14:45 51°13.688 2°55.907 5.7 217 13.8 100950 88
2001-11-30 14:46 51°13.688 2°55.907 5.2 220 13.8 100950 88
2001-11-30 14:47 51°13.688 2°55.907 4.1 233 13.8 100960 88
2001-11-30 14:48 51°13.688 2°55.907 5.9 257 13.8 100960 88
2001-11-30 14:49 51°13.688 2°55.906 3.9 233 13.8 100960 88
2001-11-30 14:50 51°13.689 2°55.907 5.7 231 13.8 100960 88
2001-11-30 14:51 51°13.688 2°55.907 4.2 227 13.8 100960 88
2001-11-30 14:52 51°13.688 2°55.906 7.6 129 13.8 100960 89
2001-11-30 14:53 51°13.688 2°55.907 7.7 226 13.8 100950 88
2001-11-30 14:54 51°13.688 2°55.906 7.7 213 13.8 100970 88
2001-11-30 14:55 51°13.688 2°55.906 6.2 226 13.8 100950 88
2001-11-30 14:56 51°13.688 2°55.907 6.1 208 13.8 100960 88